Location: Jaite
(41.2884°N, 81.5737°W)
Time: 12:23:51
(UTC+00:00)

CZ-3 R/B - Pass Details

Date: 15 November 2025
Orbit: 547 x 10008 km, 28.3° (Epoch: 11 December)

Event Time Altitude Azimuth Distance (km) Brightness Sun altitude
Exits shadow 11:03:34 - 254° (WSW) 6,941 5.4 -13.5°
Reaches altitude 10° 11:07:11 10° 250° (WSW) 5,712 5.0 -12.8°
Maximum altitude 11:18:26 32° 194° (SSW) 2,085 3.2 -10.8°
Drops below altitude 10° 11:23:17 10° 130° (SE) 2,417 4.8 -9.9°
Sets 11:25:14 0° 118° (ESE) 3,053 6.1 -9.6°
